This demonstration page uses our WeatherBlox Daily Observations layout. Learn more.

40.92945, -100.16068

Hourly Observations for April 12, 2017

Temp ( °F °C ) Dew Point ( °F °C ) Humidity (%) Winds ( mph kmh ) Pressure ( in mb ) Visibility ( mi km ) Precip ( " mm )
12:15 am 00:15 Clear 54 12.3 37 2.8 53 53 S 14 22 30.09 1019 10 16.0934 0 0
12:35 am 00:35 Clear 55 12.5 37 2.7 52 52 S 18 30 30.09 1019 10 16.0934 0 0
12:55 am 00:55 Clear 53 11.9 37 2.7 54 54 S 16 26 30.09 1019 10 16.0934 0 0
1:15 am 01:15 Clear 53 11.6 37 2.8 55 55 S 15 24 30.09 1019 10 16.0934 0 0
1:35 am 01:35 Clear 53 11.5 37 2.8 55 55 S 16 26 30.09 1019 10 16.0934 0 0
1:55 am 01:55 Clear 52 11.2 38 3.1 58 58 S 15 24 30.06 1018 10 16.0934 0 0
2:15 am 02:15 Clear 52 11.2 38 3.3 59 59 S 14 22 30.06 1018 10 16.0934 0 0
2:35 am 02:35 Clear 52 11.2 38 3.5 59 59 S 15 24 30.06 1018 10 16.0934 0 0
2:55 am 02:55 Clear 52 11 38 3.6 61 61 S 15 24 30.06 1018 10 16.0934 0 0
3:15 am 03:15 Clear 52 11.1 39 3.7 61 61 S 15 24 30.06 1018 10 16.0934 0 0
3:35 am 03:35 Clear 52 11.2 39 4 61 61 S 16 26 30.06 1018 10 16.0934 0 0
3:55 am 03:55 Clear 52 11.1 39 4 62 62 S 15 24 30.06 1018 10 16.0934 0 0
4:15 am 04:15 Clear 52 11.1 39 4.1 62 62 S 15 24 30.03 1017 10 16.0934 0 0
4:35 am 04:35 Partly Cloudy 52 11 39 4.1 63 63 S 13 20 30.03 1017 10 16.0934 0 0
4:55 am 04:55 Partly Cloudy with Nearby Thunderstorms 53 11.5 39 4 60 60 SSE 16 26 30.03 1017 10 16.0934 0 0
5:15 am 05:15 Partly Cloudy 53 11.8 40 4.2 60 60 S 23 37 30.03 1017 10 16.0934 0 0
5:35 am 05:35 Mostly Cloudy with Light Rain 54 12.2 39 4 58 58 S 26 43 30.03 1017 10 16.0934 0 0
5:55 am 05:55 Mostly Cloudy 52 10.9 42 5.6 70 70 S 18 30 30.03 1017 10 16.0934 0 0
6:15 am 06:15 Mostly Cloudy 53 11.5 41 4.9 64 64 S 23 37 30.03 1017 10 16.0934 0 0
6:35 am 06:35 Mostly Cloudy 53 11.8 41 4.8 62 62 SSE 21 33 30.03 1017 10 16.0934 0 0
6:55 am 06:55 Cloudy 53 11.5 41 5 65 65 SSE 20 31 30.03 1017 10 16.0934 0 0
7:15 am 07:15 Cloudy 53 11.5 41 4.8 64 64 SSE 17 28 30.03 1017 10 16.0934 0 0
7:35 am 07:35 Cloudy 52 11.2 41 5 66 66 SSE 18 30 30.03 1017 10 16.0934 0 0
7:55 am 07:55 Partly Cloudy 53 11.5 41 4.9 64 64 SE 16 26 30.03 1017 10 16.0934 0 0
8:15 am 08:15 Sunny 54 12.1 41 4.8 61 61 SSE 15 24 30.03 1017 10 16.0934 0 0
8:35 am 08:35 Sunny 54 12.4 41 5.1 61 61 SSE 13 20 30.03 1017 10 16.0934 0 0
8:55 am 08:55 Sunny 55 13 41 5.1 59 59 SSE 15 24 30.03 1017 10 16.0934 0 0
9:15 am 09:15 Sunny 56 13.2 41 5.2 59 59 SSE 18 30 30.03 1017 10 16.0934 0 0
9:35 am 09:35 Sunny 56 13.3 41 5.2 58 58 S 22 35 30.03 1017 10 16.0934 0 0
9:55 am 09:55 Sunny 58 14.2 41 5.1 55 55 S 17 28 30 1016 10 16.0934 0 0
10:15 am 10:15 Sunny 58 14.5 42 5.5 55 55 SSE 17 28 30 1016 10 16.0934 0 0
10:35 am 10:35 Sunny 60 15.3 43 5.9 54 54 S 17 28 30 1016 10 16.0934 0 0
10:55 am 10:55 Sunny 60 15.8 42 5.8 52 52 SSW 16 26 30 1016 10 16.0934 0 0
11:15 am 11:15 Sunny 63 17 42 5.5 47 47 S 14 22 29.97 1015 10 16.0934 0 0
11:35 am 11:35 Sunny 64 17.9 42 5.6 45 45 SW 17 28 29.97 1015 10 16.0934 0 0
11:55 am 11:55 Sunny 64 17.7 41 5.2 44 44 SW 14 22 29.97 1015 10 16.0934 0 0
12:15 pm 12:15 Sunny 65 18.5 41 5.1 41 41 SSW 15 24 29.97 1015 10 16.0934 0 0
12:35 pm 12:35 Sunny 67 19.3 41 5 39 39 WSW 16 26 29.97 1015 10 16.0934 0 0
12:55 pm 12:55 Sunny 68 19.9 40 4.6 37 37 SW 14 22 29.91 1013 10 16.0934 0 0
1:15 pm 13:15 Sunny 69 20.8 41 4.8 35 35 SW 9 15 29.91 1013 10 16.0934 0 0
1:35 pm 13:35 Sunny 70 21.1 41 4.9 35 35 SW 8 13 29.91 1013 10 16.0934 0 0
1:55 pm 13:55 Sunny 70 21.1 40 4.4 34 34 W 9 15 29.91 1013 10 16.0934 0 0
2:15 pm 14:15 Sunny 71 21.9 41 5.1 34 34 W 7 11 29.91 1013 10 16.0934 0 0
2:35 pm 14:35 Sunny 72 22 40 4.5 32 32 SSW 5 7 29.91 1013 10 16.0934 0 0
2:55 pm 14:55 Sunny 72 22.3 39 4 30 30 Calm 29.91 1013 10 16.0934 0 0
3:15 pm 15:15 Sunny 73 22.8 42 5.5 33 33 E 3 6 29.91 1013 10 16.0934 0 0
3:35 pm 15:35 Sunny 74 23.1 40 4.6 30 30 W 6 9 29.91 1013 10 16.0934 0 0
3:55 pm 15:55 Sunny 74 23.2 37 3 27 27 Calm 29.91 1013 10 16.0934 0 0
4:15 pm 16:15 Sunny 74 23.5 39 4 28 28 Calm 29.88 1012 10 16.0934 0 0
4:35 pm 16:35 Sunny 75 23.8 39 4.1 28 28 Calm 29.88 1012 10 16.0934 0 0
4:55 pm 16:55 Sunny 75 24 38 3.5 26 26 WNW 5 7 29.88 1012 10 16.0934 0 0
5:15 pm 17:15 Sunny 75 24 39 3.8 27 27 Calm 29.88 1012 10 16.0934 0 0
5:35 pm 17:35 Sunny 76 24.3 38 3.6 26 26 Calm 29.88 1012 10 16.0934 0 0
5:55 pm 17:55 Sunny 75 24.1 40 4.7 29 29 NNW 6 9 29.88 1012 10 16.0934 0 0
6:15 pm 18:15 Sunny 75 24 40 4.3 28 28 NNW 9 15 29.88 1012 10 16.0934 0 0
6:35 pm 18:35 Sunny 75 23.8 41 4.8 29 29 NW 6 9 29.88 1012 10 16.0934 0 0
6:55 pm 18:55 Sunny 74 23.5 38 3.5 27 27 N 10 17 29.88 1012 10 16.0934 0 0
7:15 pm 19:15 Sunny 73 22.7 40 4.5 31 31 NNE 7 11 29.94 1014 10 16.0934 0 0
7:35 pm 19:35 Sunny 71 21.7 40 4.7 33 33 NNE 5 7 29.94 1014 10 16.0934 0 0
7:55 pm 19:55 Sunny 68 19.8 40 4.6 37 37 N 9 15 29.97 1015 10 16.0934 0 0
8:15 pm 20:15 Sunny 67 19.5 40 4.6 38 38 NNE 9 15 29.97 1015 10 16.0934 0 0
8:35 pm 20:35 Clear 63 17.2 42 5.4 46 46 NE 8 13 29.97 1015 10 16.0934 0 0
8:55 pm 20:55 Clear 60 15.6 42 5.3 51 51 N 8 13 30 1016 10 16.0934 0 0
9:15 pm 21:15 Clear 60 15.3 42 5.5 52 52 NNE 9 15 30.03 1017 10 16.0934 0 0
9:35 pm 21:35 Clear 58 14.5 42 5.5 55 55 N 7 11 30.03 1017 10 16.0934 0 0
9:55 pm 21:55 Clear 57 14 42 5.8 58 58 NNE 14 22 30.09 1019 10 16.0934 0 0
10:15 pm 22:15 Clear 58 14.4 44 6.7 60 60 NNE 12 19 30.06 1018 10 16.0934 0 0
10:35 pm 22:35 Clear 56 13.5 45 7.2 66 66 NE 6 9 30.09 1019 10 16.0934 0 0
10:55 pm 22:55 Clear 56 13.1 45 7.2 68 68 NNE 9 15 30.09 1019 10 16.0934 0 0
11:15 pm 23:15 Clear 56 13.1 45 7.2 68 68 NNE 9 15 30.09 1019 10 16.0934 0 0
11:35 pm 23:35 Clear 55 12.5 45 7 69 69 NE 8 13 30.09 1019 10 16.0934 0 0
11:55 pm 23:55 Clear 54 12.3 44 6.9 70 70 NE 10 17 30.09 1019 10 16.0934 0 0

Powered by AerisWeather